www.pogodaiklimat.ru

Погода и климат >> Архив погоды >> Россия >> Нижегородская область >> Нижний Новгород аэропорт


ПОГОДА в Нижнем Новгороде аэропорт

  • Прогноз погоды в Нижнем Новгороде аэропорт
  • Монитор погоды в Нижнем Новгороде аэропорт
  • Климат города

АРХИВ ПОГОДЫ в Нижнем Новгороде аэропорт

Время (UTC), дата Ветер
(напр.,м/с)
 
Видим.   Явления Облачность Т
(С)
Тd
(С)
f
(%)
Тe
(С)
Тes
(С)
Комфортность P
(гПа)
Po
(гПа)
Тmin
(С)
Tmax
(С)
R
(мм)
R24
(мм)
S
(см)
03 11.08 З 4-7
{7}
10 км 4/0
[Ci fib]
+18.1 +14.8 81 +18 +19 1022.1 1022.0 +17.0
06 11.08 З 4-5
{5}
10 км 4/0
[Ci fib]
+23.3 +16.1 64 +28 +33 душно 1021.3 1021.0
09 11.08 З 6-9
{9}
10 км 5/5 1000 м
[Cu hum]
+27.1 +14.8 47 +30 +32 душно 1020.2 1020.0
12 11.08 ЮЗ 6-9
{10}
10 км 6/6 1000 м
[Cu hum]
+28.1 +14.3 43 +30 +32 жарко 1018.8 1019.0
15 11.08 ЮЗ 5-8
{10}
10 км 4/4 1000 м
[Cu hum]
+26.5 +13.6 45 +29 +29 жарко 1017.6 1018.0 +28.8
18 11.08 ЮЗ 2-2
{8}
10 км 3/0
[Ac trans]
+19.2 +14.7 75 +21 +21 комфорт 1018.1 1018.0
21 11.08 Ю 2-2
{3}
10 км 4/0
[Ac trans]
+16.7 +14.0 84 +17 +17 1017.7 1018.0
00 12.08 Ю 1-1
{2}
10 км 4/0
[Ac trans]
+14.4 +13.0 91 +15 +15 1017.4 1017.0
03 12.08 Ю 1-1
{2}
10 км 3/0
[Ac trans]
+16.1 +13.8 86 +17 +18 1016.9 1017.0 +13.5
06 12.08 ЮЗ 3-4
{4}
10 км 3/0
[Ci fib]
+23.5 +14.2 56 +26 +32 жарко 1015.5 1016.0
09 12.08 ЮЗ 5-8
{9}
10 км 4/3 1000 м
[Cu hum Ci fib]
+26.8 +11.7 39 +28 +32 жарко 1014.4 1014.0
12 12.08 ЮЗ 5-9
{9}
10 км 4/3 1000 м
[Cu hum Ci fib]
+27.7 +12.5 39 +29 +32 жарко 1012.7 1013.0
15 12.08 ЮЗ 3-5
{7}
10 км 6/0
[Ci fib]
+27.1 +11.6 38 +28 +29 жарко 1011.2 1011.0 +27.9
18 12.08 Ю 1-1
{4}
10 км 8/0
[Ci fib]
+18.6 +14.1 75 +20 +20 1010.3 1010.0
21 12.08 Ю 2-3
{4}
10 км 8/0
[Ci fib]
+17.7 +13.4 76 +18 +18 1009.7 1010.0
00 13.08 ЮЗ 3-4
{4}
10 км 8/0
[Ci fib]
+18.7 +12.7 68 +20 +20 1009.3 1009.0
03 13.08 ЮЗ 3-4
{5}
10 км 8/3 1000 м
[Sc Ci fib]
+18.1 +13.0 72 +18 +19 1009.8 1010.0 +16.3
06 13.08 ЮЗ 5-7
{8}
10 км 6/0
[Ci fib]
+21.0 +11.3 54 +23 +27 комфорт 1009.7 1010.0
09 13.08 ЮЗ 6-9
{11}
10 км 9/5 1000 м
[Cu hum Cc]
+23.9 +7.9 36 +24 +26 комфорт 1008.9 1009.0
12 13.08 З 5-9
{11}
10 км 9/5 1000 м
[Cu hum Ci fib]
+23.3 +6.6 34 +24 +26 комфорт 1008.5 1009.0
15 13.08 З 5-8
{10}
10 км 9/5 1000 м
[Cu hum Ci fib]
+22.3 +8.1 40 +23 +24 комфорт 1008.2 1008.0 +24.4
18 13.08 З 2-3
{7}
10 км 6/3 1000 м
[Sc Ci fib]
+17.6 +9.5 59 +18 +18 1009.1 1009.0
21 13.08 З 2-3
{5}
10 км 8/0
[Ci fib]
+15.7 +9.6 67 +16 +16 1009.4 1009.0
00 14.08 З 3-3
{4}
10 км 8/0
[Ci fib]
+14.0 +9.2 73 +13 +13 1010.0 1010.0
03 14.08 З 3-3
{5}
10 км 5/1 1000 м
[Cu hum Ac trans]
+14.3 +9.9 75 +13 +14 1011.4 1011.0 +13.0
06 14.08 З 3-3
{5}
10 км 4/1 1000 м
[Cu hum Ac trans]
+18.1 +11.4 65 +18 +23 1012.3 1012.0
09 14.08 СЗ 5-10
{10}
10 км 6/6 1000 м
[Cu hum]
+20.9 +8.5 45 +22 +25 комфорт 1012.7 1013.0
12 14.08 СЗ 5-7
{11}
10 км 6/5 1000 м
[Cu hum Ci fib]
+22.0 +7.1 38 +23 +25 комфорт 1013.0 1013.0
15 14.08 З 3-3
{8}
10 км 4/3 1000 м
[Cu hum Ci fib]
+21.8 +8.3 42 +23 +23 комфорт 1013.4 1013.0 +23.8
18 14.08 Ю 1-1
{4}
10 км 3/0
[Ac trans]
+15.0 +11.0 77 +16 +16 1015.1 1015.0
21 14.08 штиль 0-1
{1}
10 км 3/0
[Ac trans]
+12.4 +10.5 88 +12 +12 1015.9 1016.0
00 15.08 штиль 0-1
{1}
10 км 4/0
[Ac trans]
+11.5 +10.1 91 +11 +11 1016.6 1017.0
03 15.08 нст 1-2
{4}
10 км 6/3 1000 м
[Sc Ci fib]
+13.2 +10.7 85 +13 +14 1016.8 1017.0 +10.5
06 15.08 Ю 2-3
{5}
10 км 6/3 1000 м
[Cu hum Ci fib]
+21.6 +10.7 50 +23 +28 комфорт 1016.2 1016.0
09 15.08 Ю 6-9
{9}
10 км 6/3 1000 м
[Cu hum Ci fib]
+25.0 +8.9 36 +26 +29 жарко 1014.9 1015.0
12 15.08 Ю 5-7
{10}
10 км 8/3 1000 м
[Cu hum Ci fib]
+26.3 +10.9 38 +27 +30 жарко 1013.0 1013.0
15 15.08 ЮЗ 5-9
{9}
10 км 9/4 1000 м
[Sc Ac trans]
+24.6 +14.1 52 +27 +27 жарко 1012.0 1012.0 +26.8
18 15.08 Ю 5-6
{9}
10 км 10/5 1000 м
[Cb cap Ac As]
+21.9 +16.0 69 +26 +26 душно 1010.7 1011.0
21 15.08 ЮВ 1-2
{13}
10 км в посл. час гроза {ливн. осадки} 10/6 600 м
[Cb cap Ac As]
+18.3 +17.5 95 +20 +20 1010.0 1010.0
00 16.08 ЮЗ 5-7
{8}
10 км {гроза, ливн. осадки} 10/6 600 м
[Sc Ac As]
+18.6 +16.6 88 +19 +19 1009.5 1010.0
03 16.08 З 4-7
{7}
10 км 10/6 600 м
[Sc Ac As]
+18.2 +16.9 92 +18 +18 1010.5 1011.0 +17.9 2
06 16.08 З 4-8
{8}
10 км 9/8 400 м
[Sc Ac trans]
+19.9 +16.5 81 +22 +23 комфорт 1011.6 1012.0
09 16.08 З 4-7
{8}
10 км 9/8 700 м
[Cb cap Ac trans]
+21.1 +16.3 74 +24 +26 комфорт 1012.6 1013.0
12 16.08 СЗ 4-5
{8}
10 км в посл. час ливневой дождь 9/8 360 м
[Cb cap Ac trans]
+19.1 +17.4 90 +21 +21 комфорт 1014.5 1015.0
15 16.08 С 4-6
{7}
10 км в посл. час ливневой дождь 9/8 900 м
[Cb cap Ac trans]
+17.9 +15.2 84 +18 +18 1016.2 1016.0 +23.1 1
18 16.08 С 2-3
{8}
10 км {ливн. осадки} 8/4 600 м
[Sc Ac trans Ci fib]
+15.1 +13.8 92 +15 +15 1018.1 1018.0
21 16.08 С 2-3
{5}
10 км 8/0
[Ci fib]
+11.9 +11.4 97 +11 +11 1019.6 1020.0
00 17.08 СЗ 1-1
{2}
8000 м 8/0
[Ci fib]
+10.2 +10.0 99 +10 +10 1020.9 1021.0
03 17.08 штиль 0
{4}
6000 м местами туман поземный 4/3 200 м
[St Ci fib]
+10.2 +9.9 98 +9 +10 1022.5 1023.0 +8.8
06 17.08 С 3-4
{4}
10 км 1/1 600 м
[Cu hum]
+17.0 +12.7 76 +17 +22 1023.1 1023.0
09 17.08 С 4-6
{7}
10 км 6/6 600 м
[Cu hum]
+20.1 +9.4 50 +21 +25 комфорт 1023.0 1023.0
12 17.08 С 3-5
{7}
10 км 6/6 600 м
[Cu hum]
+21.5 +9.7 47 +23 +25 комфорт 1022.4 1022.0
15 17.08 С 3-4
{9}
10 км 8/5 600 м
[Cu hum Ci fib]
+20.1 +10.2 53 +22 +22 комфорт 1022.3 1022.0 +22.0
18 17.08 С 2-2
{5}
10 км 3/0
[Ac trans]
+13.9 +10.5 80 +13 +13 1023.3 1023.0
21 17.08 ЮЗ 1-2
{4}
10 км 3/0
[Ac trans]
+11.9 +9.6 86 +12 +12 1023.9 1024.0

 

Местоположение метеостанции Нижний Новгород аэропорт (Нижегородская область, Россия): широта 56.22 долгота 43.77 высота над уровнем моря 77 м.

В архиве по умолчанию представлена погода в Нижнем Новгороде аэропорт за последнюю неделю. Архивные данные за месяц целиком и за предыдущие месяцы, начиная с января 2011 года, Вы можете получить, выбрав интересующий диапазон дат из раскрывающегося списка и нажав кнопку "Ввод!".


*Определитесь, кто Вы:
робот инопланетянин человек

Внимание! Время в таблицах - всемирное. Для получения местного времени необходимо прибавить поправку, которая в Нижнем Новгороде аэропорт равна 3 ч.

Смотрите также архив погоды в соседних городах и на ближайших метеорологических станциях:

Погода в Нижнем Новгороде (Нижегородская область, Россия) (15 км)
Погода в Балахне (Нижегородская область, Россия) (45 км)
Погода в Дальнем Константиново (Нижегородская область, Россия) (51 км)
Погода в Павлово (Нижегородская область, Россия) (55 км)
Погода в Волжской ГМО (Нижегородская область, Россия) (55 км)
Погода в Семенове (Нижегородская область, Россия) (73 км)
Погода в Лысково (Нижегородская область, Россия) (82 км)
Погода в Арзамасе (Нижегородская область, Россия) (95 км)
Погода в Вязниках (Владимирская область, Россия) (99 км)
Погода в Воскресенском (Нижегородская область, Россия) (121 км)

Пояснения к столбцам:

Ветер - указаны скорость ветра в м/с - средняя за 10 мин, порывы в срок и между сроками (в фигурных скобках) и направление, откуда дует ветер: С - северный, СВ - северо-восточный, В - восточный, ЮВ - юго-восточный, Ю - южный, ЮЗ - юго-западный, З - западный, СЗ - северо-западный.
Видимость - горизонтальная дальность видимости в метрах или километрах. При видимости от 1 до 10 км при отсутствии осадков обычно наблюдается дымка, при ухудшении видимости до 1 км и менее - туман. В сухую погоду видимость может ухудшаться дымом, пылью или мглою.
Явления - указаны атмосферные явления, наблюдавшиеся в срок или в последний час перед сроком; фигурными скобками обозначены явления, наблюдавшиеся между сроками (за 1-3 часа до срока); квадратными скобками обозначены град или гололедные отложения с указанием их диаметра в мм.
Облачность - указаны через наклонную черту общая и нижняя облачность в баллах и высота нижней границы облаков в метрах; квадратными скобками обозначены формы облаков: Ci - перистые, Cs - перисто-слоистые, Cc - перисто-кучевые, Ac - высококучевые, As - высокослоистые, Sc - слоисто-кучевые, Ns - слоисто-дождевые, Cu - кучевые, Cb - кучево-дождевые. Подробнее классификацию облаков см. в Атласе облаков (PDF).
T - Температура воздуха - температура, измеренная на высоте 2 м над землей.
Td - Температура точки росы - температура, при понижении до которой содержащийся в воздухе водяной пар достигнет насыщения.
f - Относительная влажность воздуха - влажноcть воздуха, измеренная на высоте 2 м над землей.
Te - Эффективная температура - температура, которую ощущает одетый по сезону человек в тени. Характеристика душности погоды. При расчете учитывается влияние влажности воздуха и скорости ветра на теплоощущения человека.
Tes - Эффективная температура на солнце - температура, которую ощущает человек, с поправкой на солнечный нагрев. Характеристика знойности погоды. Зависит от высоты солнца над горизонтом, облачности и скорости ветра. Ночью, в пасмурную погоду, а также при ветре 12 м/с и более поправка равна нулю.
P - Атмосферное давление - приведенное к уровню моря атмосферное давление.
Po - Атмосферное давление - измеренное на уровне метеостанции атмосферное давление.
Tmin - Минимальная температура - минимум температуры воздуха на высоте 2 м над землей.
Tmax - Максимальная температура - максимум температуры воздуха на высоте 2 м над землей.
R - Количество осадков - Количество выпавших осадков за период времени, мм. При наведении курсора мыши на число - период времени, за который выпало указанное количество осадков.
R24 - Количество осадков - Количество выпавших осадков за 24 часа, мм.
S - Снежный покров - Высота снежного покрова, см. При наведении курсора мыши на число - состояние снежного покрова и степень покрытия местности в баллах.